Dewpoint
33 29 28 28 30 29 27 26 26 26 24 25 24 25 27 28 29 27 27 30 31 40 43 44 44 43 44 44 43 43 43 44 43 44 44 44 45 45 47 48 49 51 53 54
33 31 32 31 29 29 29 28 25 23 23 24 24 25 27 28 27 26 27 29 39 41 41 42 42 42 42 42 42 41 41 41 41 42 43 44 43 45 45 47 47 48 49 50
29 28 28 29 28 27 26 24 22 21 28 27 26 26 25 25 26 27 28 28 38 41 40 40 41 41 41 40 40 40 40 40 41 41 41 40 41 42 42 42 43 45 46 47
29 29 28 27 26 26 24 29 29 29 27 23 30 22 22 23 24 26 27 36 40 40 38 39 39 39 39 39 39 39 39 39 39 39 39 39 38 38 39 40 42 42 44 45
28 27 27 26 26 29 28 32 30 30 28 29 25 26 20 22 23 25 37 41 41 40 39 37 37 38 38 38 38 37 36 36 37 38 38 38 37 38 38 39 40 41 43 45
29 33 30 29 31 30 34 30 29 30 30 22 21 23 21 23 30 35 40 39 39 38 36 36 36 37 37 36 36 35 34 34 35 36 36 36 36 36 37 38 39 41 43 44
30 30 34 35 32 32 31 27 23 19 20 17 24 23 23 38 39 40 37 37 38 36 36 35 34 35 35 35 34 34 34 33 33 34 35 35 35 36 37 37 39 39 41 43
25 22 31 33 31 29 30 28 22 15 18 21 24 20 30 36 35 38 38 38 38 36 35 34 34 33 33 34 33 32 33 33 33 33 33 34 35 36 36 36 37 38 40 42
25 25 28 32 33 29 29 26 27 26 25 21 20 28 33 33 32 33 33 34 35 36 34 33 33 32 32 33 33 32 33 33 33 32 33 33 34 34 35 35 37 38 39 40
28 24 27 29 31 31 29 30 26 27 18 18 20 25 25 30 31 32 32 32 32 34 33 32 32 31 31 31 32 32 32 32 32 32 32 33 33 34 34 35 35 36 37 38
30 28 27 30 29 29 30 28 30 27 27 21 19 23 32 32 33 32 32 33 32 29 29 29 30 31 30 30 31 31 31 31 31 31 31 31 31 32 33 33 33 34 35 36
35 31 28 25 30 30 29 28 30 24 22 28 23 25 36 35 36 32 31 31 30 29 28 28 28 28 29 29 30 30 30 30 31 31 30 30 31 31 31 31 31 32 32 34
36 32 26 26 27 28 27 25 27 28 30 25 20 23 37 37 33 28 27 27 27 27 27 27 27 27 28 29 29 30 29 30 30 31 30 31 30 30 30 29 30 30 30 30
38 32 29 22 23 24 21 21 26 28 25 21 19 27 32 32 28 27 26 26 26 26 26 26 26 25 27 28 28 28 29 30 30 30 30 30 30 30 30 29 29 28 29 28
32 28 27 24 25 24 20 10 15 22 23 18 19 27 30 29 28 27 26 25 25 25 25 24 24 25 26 27 27 28 28 29 29 29 29 30 30 31 30 30 31 29 28 28
30 27 29 27 25 17 8 8 6 5 15 26 27 27 30 29 27 26 25 25 24 23 24 25 24 24 25 26 27 27 27 28 28 28 29 29 29 29 30 30 29 29 27 27
28 29 26 23 27 25 16 11 18 24 25 25 21 25 27 25 25 25 26 25 24 23 24 25 26 26 27 28 29 28 28 28 27 27 27 28 28 28 28 29 29 29 28 26
25 26 25 21 23 16 21 27 26 25 25 27 27 27 26 25 25 25 26 25 25 24 24 26 27 28 29 30 30 30 29 29 26 26 26 27 26 26 27 27 27 26 28 26
24 27 23 17 15 20 22 24 25 22 23 25 27 26 25 25 23 24 25 26 26 27 26 27 28 29 28 28 30 30 29 29 27 25 24 24 23 22 23 23 24 25 24 24
25 22 17 15 10 11 21 25 26 22 14 24 26 26 25 23 20 20 26 27 26 27 28 27 28 26 26 27 28 29 29 28 28 26 25 24 24 22 20 20 22 23 22 21
16 15 12 13 13 21 25 27 26 14 16 24 24 24 26 24 22 24 26 26 27 28 27 26 26 25 25 26 26 23 23 23 26 29 26 24 24 23 22 20 19 20 20 20
16 12 14 17 16 15 26 26 21 22 25 25 23 23 22 23 23 23 23 24 26 26 25 24 23 22 22 21 22 22 22 23 24 24 26 25 24 23 22 21 20 19 19 18
12 17 18 22 18 26 27 27 27 25 24 25 22 23 22 21 22 21 22 23 24 24 23 18 17 18 19 21 22 21 22 23 22 22 23 23 24 23 22 21 20 19 19 19
28 26 22 22 24 25 27 28 27 26 25 26 25 23 22 21 20 21 21 21 21 20 18 17 16 17 18 20 20 21 22 22 21 20 21 22 22 22 23 22 21 18 16 19
26 25 25 24 25 25 27 26 26 25 26 25 24 22 21 21 21 21 20 20 19 19 19 18 16 17 17 18 19 19 21 22 21 22 21 21 22 22 22 23 24 18 16 19
29 25 21 19 24 23 25 26 26 25 24 23 22 22 22 22 21 21 20 19 18 17 16 14 14 14 15 15 15 17 19 21 19 19 21 20 20 19 20 19 19 22 14 14
Wind_Speed
7 13 20 26 20 17 11 17 28 22 12 16 17 35 30 22 21 29 30 22 16 16 16 17 20 21 24 23 25 24 26 23 21 19 19 16 16 16 14 14 15 15 16 16
6 24 19 15 17 21 21 24 27 30 16 12 18 34 33 35 27 26 25 21 14 19 10 18 21 24 25 24 23 23 22 20 18 15 13 7 16 9 15 13 16 16 15 16
20 6 12 16 18 21 21 25 25 25 9 6 15 24 31 21 22 19 20 21 18 29 20 18 21 23 22 25 21 21 19 17 17 15 12 12 9 9 10 17 18 18 19 17
16 25 25 21 17 17 20 4 5 6 11 18 8 24 46 17 18 13 17 9 28 21 15 21 21 24 22 21 22 20 17 18 17 16 14 15 12 14 13 16 15 19 20 20
12 2 16 22 25 7 5 3 2 2 6 9 8 9 21 27 25 16 2 22 25 21 14 17 25 25 22 19 20 15 15 21 17 15 14 13 15 15 16 15 16 16 17 17
18 3 7 12 6 6 11 4 0 1 2 13 6 13 12 14 9 10 19 15 21 21 21 23 23 21 20 18 18 16 16 23 18 16 15 14 16 18 19 18 18 16 16 18
7 13 7 8 7 6 5 4 8 5 5 12 5 4 10 18 22 20 22 22 13 15 21 23 23 21 19 20 22 17 21 19 16 16 16 16 15 17 18 19 18 22 19 19
8 8 11 10 17 11 9 10 8 8 5 6 6 5 8 19 25 28 25 22 25 13 22 22 22 18 18 21 23 19 17 16 19 17 17 15 17 15 17 18 19 19 19 20
9 8 3 11 6 14 7 8 2 6 7 8 5 4 15 15 18 19 20 19 17 20 16 21 20 19 21 21 17 15 17 18 19 19 18 18 17 18 19 20 19 18 20 21
9 14 5 4 7 8 9 12 4 3 5 6 4 5 3 5 7 14 13 15 12 10 20 19 18 21 19 14 14 16 17 16 15 16 17 18 20 19 19 18 20 21 22 23
10 10 5 10 14 16 8 8 3 6 4 4 4 3 3 6 8 11 11 13 10 17 14 15 16 14 14 14 16 17 19 19 20 21 20 21 20 19 19 19 21 22 22 23
2 6 14 20 8 17 17 16 16 7 5 4 2 3 7 8 6 14 12 11 15 19 18 20 20 19 17 17 17 18 18 17 18 18 18 19 19 20 21 20 21 22 23 22
10 5 5 3 4 3 12 14 18 17 4 8 4 3 14 9 18 12 13 14 16 15 16 15 16 18 17 16 16 16 16 18 19 17 18 18 21 22 22 23 22 22 23 23
11 6 7 9 4 7 8 15 16 17 8 6 11 9 8 18 15 13 13 14 13 14 13 12 12 12 13 14 15 16 16 18 18 17 18 20 21 22 22 22 24 24 23 24
10 8 8 10 4 6 8 3 11 18 20 14 11 14 15 12 15 13 12 11 11 11 11 12 14 13 14 14 14 15 18 17 17 17 19 21 20 21 22 22 20 22 24 24
6 4 0 6 12 4 7 5 1 3 2 10 22 13 13 14 13 11 9 9 10 12 13 13 15 14 14 16 16 15 16 17 16 18 20 20 20 21 21 22 25 24 25 25
10 8 5 8 10 7 9 5 6 6 9 9 11 10 16 12 10 8 10 9 10 10 10 11 12 14 14 14 14 15 15 15 18 19 20 21 20 21 22 22 22 24 25 25
11 9 3 3 9 8 2 6 10 17 8 10 18 17 13 15 13 12 9 9 8 8 6 8 9 11 12 11 11 10 13 16 21 22 21 22 22 21 21 21 22 24 21 23
10 7 3 5 9 5 5 5 6 5 5 2 13 15 18 17 16 11 9 8 7 9 7 7 7 8 10 12 11 9 15 17 19 21 20 20 20 20 21 23 22 21 22 22
14 10 8 7 5 9 2 4 6 6 6 8 11 16 19 16 5 7 10 9 9 9 8 8 8 10 14 15 16 14 13 16 17 16 17 18 18 21 21 20 20 18 19 20
11 9 15 10 4 2 3 6 3 4 5 11 8 7 11 11 2 17 12 9 8 11 11 11 12 14 14 14 13 17 16 18 15 11 15 17 17 20 19 19 20 21 20 20
15 12 8 6 5 8 1 2 6 8 9 13 10 7 15 20 18 15 13 12 10 12 13 11 13 14 14 16 16 18 18 16 16 16 14 15 17 16 17 19 18 20 21 22
8 6 8 4 5 4 5 8 12 9 15 10 16 13 18 20 17 15 13 14 14 14 11 10 12 13 15 16 16 16 17 16 15 14 15 15 12 14 15 16 19 21 21 21
3 5 6 7 5 7 9 12 12 15 14 16 17 17 16 19 17 16 14 13 14 13 12 11 12 13 13 13 15 15 14 12 13 15 15 15 14 12 12 12 15 19 20 19
5 8 11 6 10 11 8 10 15 16 17 17 15 16 18 19 17 15 15 14 14 13 11 11 10 11 12 13 13 13 14 12 12 12 12 12 11 12 11 11 13 17 19 21
2 8 9 7 19 8 17 17 17 18 16 17 19 17 15 15 17 15 14 12 12 12 11 12 12 11 10 11 12 13 13 12 10 10 11 13 13 14 14 14 13 17 23 25
Wind_Direction
179 202 209 219 214 236 264 270 275 276 267 303 299 283 289 290 294 297 296 303 330 101 113 111 100 93 85 73 66 58 54 45 38 24 11 352 351 336 341 337 338 341 342 342
233 234 230 221 228 244 251 260 269 283 283 313 303 286 289 285 285 275 287 286 129 117 119 101 89 83 78 74 65 56 52 49 41 31 15 359 329 320 325 330 334 333 341 336
214 206 220 220 227 241 247 255 271 270 326 262 301 290 288 285 270 280 283 287 171 146 127 84 73 73 69 66 63 63 54 45 39 32 13 356 340 329 331 338 329 328 325 320
239 231 243 250 248 253 269 337 12 337 332 299 72 299 296 295 296 295 301 92 111 98 101 99 84 71 64 60 55 45 50 45 36 24 17 359 346 330 319 311 311 314 314 311
222 210 218 234 243 193 251 113 77 311 308 317 269 250 273 329 313 313 114 118 110 115 107 86 90 78 67 59 61 40 45 45 27 16 12 357 338 323 316 317 311 313 309 304
252 248 238 241 165 165 144 98 69 100 169 267 239 218 302 2 358 25 85 85 112 113 101 85 74 74 68 61 56 37 34 39 20 13 3 359 341 327 324 328 322 321 315 310
271 244 193 155 174 167 136 107 290 285 231 245 359 249 278 354 11 314 127 101 42 87 88 81 73 63 56 50 43 25 29 27 12 12 6 356 342 331 325 326 326 320 315 312
222 281 187 199 211 214 175 181 198 238 243 281 303 260 11 46 27 34 79 90 98 60 78 73 71 61 55 52 41 23 14 20 12 6 1 350 348 338 333 326 321 311 308 309
204 241 253 187 169 159 153 200 191 266 267 283 240 126 46 31 51 45 45 45 56 77 66 72 66 54 45 47 37 17 16 15 9 2 358 353 347 344 334 331 324 317 315 317
211 252 241 179 123 160 166 153 146 165 233 241 261 97 135 98 94 100 75 68 55 65 64 58 55 48 40 34 31 16 16 13 3 3 2 354 351 345 338 335 331 326 326 325
179 196 254 155 202 178 164 198 178 178 218 255 292 192 205 220 146 122 122 116 93 64 67 67 61 54 40 28 30 19 12 6 9 8 1 356 354 350 347 346 340 337 332 335
213 168 225 211 188 195 195 204 191 205 220 219 118 246 192 211 172 149 133 106 77 63 48 39 34 30 27 22 22 20 7 4 8 7 4 358 358 360 358 355 349 348 344 340
155 198 221 224 333 203 200 215 207 207 141 204 196 211 187 112 124 109 96 81 71 61 55 43 29 25 16 13 16 16 5 6 6 6 9 5 6 6 5 1 358 360 353 349
150 175 221 223 185 158 184 205 201 181 193 203 205 158 179 128 133 112 95 87 76 61 52 47 36 30 20 16 18 11 7 10 6 10 10 9 11 7 10 4 9 7 2 360
155 210 222 259 198 188 197 204 224 205 213 215 217 149 137 122 114 103 92 80 72 63 55 45 35 30 24 21 17 17 19 10 10 13 16 12 4 8 7 6 7 9 11 10
146 209 348 254 259 255 228 226 102 195 101 89 124 120 135 124 108 86 72 65 56 45 42 41 37 36 34 30 27 24 19 13 17 20 17 13 10 9 7 14 17 12 11 10
165 172 180 243 207 247 274 214 149 118 48 145 174 170 144 121 107 98 90 77 66 52 50 44 44 37 30 23 22 24 21 19 24 24 19 15 9 9 10 13 13 14 13 13
169 145 152 243 140 215 131 64 126 117 75 88 115 134 136 128 116 97 84 94 93 84 66 55 42 32 23 14 15 19 26 34 34 31 23 17 13 11 8 12 20 16 13 13
147 126 188 182 200 113 160 156 152 171 181 78 130 128 128 124 110 98 99 98 102 110 99 68 56 39 35 27 11 19 34 34 36 29 24 20 18 16 13 14 12 20 17 11
203 209 217 208 190 213 201 150 127 112 243 179 146 162 158 158 179 154 129 122 117 106 96 87 53 47 38 24 20 23 33 38 36 29 26 25 20 23 19 15 9 16 27 15
186 206 218 223 223 210 107 146 123 189 224 153 144 148 174 186 162 132 121 119 117 121 101 73 63 53 35 21 27 33 39 35 22 16 32 28 24 26 20 20 21 21 23 21
184 188 190 187 209 241 73 154 203 138 110 126 119 123 130 121 118 114 109 103 104 96 87 70 63 51 39 32 35 34 33 34 28 28 30 33 27 22 21 24 24 28 28 27
185 191 173 191 188 97 49 106 125 127 133 127 126 123 120 122 122 120 105 91 76 81 85 72 66 56 38 31 29 33 22 30 29 30 29 27 30 22 24 27 29 30 26 26
109 132 105 142 144 123 102 93 110 124 125 127 129 131 127 127 129 120 107 94 87 78 75 68 63 57 43 30 32 25 14 24 36 35 30 24 23 26 26 32 39 35 29 26
183 137 134 86 133 125 139 130 127 119 117 121 126 131 133 135 130 124 114 106 97 90 79 70 69 66 46 31 26 15 9 13 33 31 26 18 18 18 27 39 41 42 35 36
198 154 176 210 176 160 161 144 137 132 138 137 136 136 137 136 130 128 118 111 106 98 89 78 64 61 45 38 26 12 8 8 22 29 27 27 30 28 30 33 39 40 43 40